Weather Roundup
Issued by NWS

Home | Current Version | Previous Version | Graphics & Text | Print | Product List | Glossary Off
Versions: 1 2 3 4 5 6 7 8 9 10 11 12 13 14 15 16 17 18 19 20 21 22 23 24 25 26 27 28 29 30 31 32 33 34 35 36 37 38 39 40 41 42 43 44 45 46 47 48 49 50

000
NZUS93 KARX 032010
HRRWXR

CURRENT HOURLY OBSERVATIONS ACROSS
MUCH OF THE UPPER MISSISSIPPI VALLEY
NATIONAL WEATHER SERVICE LA CROSSE WI
300 PM CDT TUE MAY 03 2016


...SOUTHEAST MINNESOTA...


CITY           SKY/WX    TMP DP  RH WIND       PRES   REMARKS
ROCHESTER      CLOUDY    67  39  35 W21       29.81F
ROCHESTER/MAYO MOCLDY    67  36  32 W17G29    29.79F
WINONA         PTSUNNY   70  34  26 W15G26    29.78F
AUSTIN         MOSUNNY   64  36  34 W14G22    29.83F
ALBERT LEA     MOSUNNY   66  36  32 SW13G24   29.83F
DODGE CENTER   MOSUNNY   66  36  32 W17G28    29.81F
PRESTON        PTSUNNY   66  37  35 W18G28    29.83F
OWATONNA       MOSUNNY   70  36  28 W25G33    29.81F
FARIBAULT      MOSUNNY   68  37  32 W13G21    29.81F
$$

...ELSEWHERE IN MINNESOTA...


CITY           SKY/WX    TMP DP  RH WIND       PRES   REMARKS
MINNEAPOLIS    PTSUNNY   71  39  31 W15G30    29.75F
INTNL FALLS    PTSUNNY   62  30  29 N17G24    29.77R
DULUTH         PTSUNNY   65  29  25 NW21G26   29.67R
RED WING       MOSUNNY   72  34  25 W16G26    29.75F
REDWOOD FALLS  MOSUNNY   71  39  31 NW17G30   29.80F
MANKATO        MOSUNNY   68  37  32 W21G32    29.81F
WORTHINGTON    CLOUDY    65  45  48 W24G32    29.88F
FAIRMONT       PTSUNNY   66  41  39 W18       29.85F
$$

...SOUTHWEST WISCONSIN...


CITY           SKY/WX    TMP DP  RH WIND       PRES   REMARKS
LA CROSSE      CLOUDY    70  36  28 W22       29.77F
PRAIRIE DU CHI CLOUDY    68  34  28 W15G25    29.82F
BOSCOBEL       LGT RAIN  68  37  32 W12G22    29.82F
LONE ROCK      CLOUDY    67  37  33 W16G26    29.80F
PLATTEVILLE    MOSUNNY   66  38  35 W21       29.84F
FORT MC COY    CLOUDY    67  35  30 W15G21    29.77F
CAMP DOUGLAS   PTSUNNY   66  39  37 W20       29.75F
MAUSTON-NEW LI MOCLDY    68  38  32 W13G22    29.76F
VIROQUA        MOCLDY    67  35  31 W18G24    29.81F
WIS DELLS      CLOUDY    66  32  28 W15       29.78F
$$

...ELSEWHERE IN WISCONSIN...


CITY           SKY/WX    TMP DP  RH WIND       PRES   REMARKS
MILWAUKEE      PTSUNNY   67  31  26 W15G22    29.80F
MADISON        CLOUDY    65  34  31 SW9       29.79F
GREEN BAY      CLOUDY    69  36  29 W13G25    29.70F
EAU CLAIRE     PTSUNNY   67  35  30 W20G29    29.72F
BLACK RVR FLS  FAIR      70  31  23 W18G25    29.74F
MEDFORD        CLOUDY    62  34  35 W21G28    29.70F
WAUSAU         CLOUDY    68  33  27 SW16G30   29.67F
WIS RAPIDS     CLOUDY    69  28  21 W16G26    29.73F
MARSHFIELD     PTSUNNY   68  32  26 W21G26    29.71F
RICE LAKE      CLOUDY    65  33  30 W14G20    29.71F
$$

...NORTHEAST IOWA...


CITY           SKY/WX    TMP DP  RH WIND       PRES   REMARKS
WATERLOO       MOSUNNY   66  37  34 W17G28    29.87F
DUBUQUE        PTSUNNY   64  40  41 W15G23    29.86F
DECORAH        CLOUDY    66  36  32 W8G21     29.82F
MASON CITY     MOSUNNY   67  40  37 W18G26    29.87F
CHARLES CITY   PTSUNNY   68  37  32 W17       29.86F
OELWEIN        PTSUNNY   66  39  37 W21       29.87F
$$

...ELSEWHERE IN IOWA...


CITY           SKY/WX    TMP DP  RH WIND       PRES   REMARKS
DES MOINES     PTSUNNY   68  37  32 W17G25    29.94F
IOWA CITY      PTSUNNY   67  42  40 W17       29.92F
FORT DODGE     PTSUNNY   66  45  45 W14G26    29.91F
MARSHALLTOWN   MOSUNNY   66  40  38 W15G26    29.90F
CEDAR RAPIDS   PTSUNNY   64  42  44 W20G26    29.89F
$$

...NORTHERN ILLINOIS...


CITY           SKY/WX    TMP DP  RH WIND       PRES   REMARKS
CHICAGO-OHARE  PTSUNNY   65  38  36 W13       29.84F
CHICAGO-MIDWAY PTSUNNY   68  38  33 W10       29.85F
MOLINE         PTSUNNY   70  38  31 W15G23    29.89F
ROCKFORD       PTSUNNY   66  39  37 W12       29.86F
PEORIA         SUNNY     68  37  32 W9        29.92F
$$

NOTE: "FAIR" INDICATES FEW OR NO CLOUDS BELOW 12,000 FEET WITH NO
SIGNIFICANT WEATHER AND/OR OBSTRUCTIONS TO VISIBILITY. WIND
SPEEDS ARE IN MILES-PER-HOUR.




USA.gov is the U.S. government's official web portal to all federal, state and local government web resources and services.